Location: Waning Moon II Observatory
(30.3730°N, 89.7620°W)
Time: 11:00:32
(UTC-06:00)

Daily predictions for brighter satellites

Satellite Brightness Start Highest point End
(mag) Time Altitude Azimuth Time Altitude Azimuth Time Altitude Azimuth
Cosmos 1634 Rocket 4.1 17:42:43 10° N 17:48:45 54° E 17:54:44 10° SSE
Cosmos 389 Rocket 4.0 17:47:16 10° NNW 17:50:39 41° W 17:53:58 10° SSW
Cosmos 1328 3.7 17:48:02 10° S 17:51:57 76° E 17:55:54 10° N
NOSS 0 Rocket 4.1 17:48:35 10° SSW 17:54:48 82° WNW 18:01:03 10° NNE
MONITOR-E 4.2 17:51:57 10° SSE 17:55:04 58° ENE 17:58:11 10° N
SOZ 4.1 17:52:44 10° SW 17:55:24 81° SE 17:57:33 10° NE
Cosmos 1980 3.8 17:50:52 10° SSW 17:56:33 87° WNW 18:02:16 10° NNE
Meteor 2-2 Rocket 4.3 17:55:18 10° N 18:00:57 90° ENE 18:06:37 10° S
Cosmos 540 Rocket 3.5 17:56:36 10° SSW 18:01:47 89° WNW 18:06:58 10° NNE
SJ-6B 4.2 18:03:05 10° ESE 18:06:02 20° ENE 18:09:02 10° NNE
Cosmos 44 4.0 18:01:09 10° SW 18:06:23 60° WNW 18:11:29 10° NNE
ALOS 3.9 18:04:48 10° E 18:06:52 13° ENE 18:08:56 10° NE
OTV 4 1.7 18:05:28 10° NW 18:08:01 25° NNE 18:09:45 15° ENE
USA 215 4.1 18:02:58 10° E 18:08:23 28° NE 18:13:48 10° NNW
Cosmos 2333 Rocket 3.1 18:05:51 10° SW 18:11:19 51° WNW 18:16:49 10° N
Meteor 2-10 4.4 18:07:12 10° N 18:12:02 41° E 18:16:58 10° SSE
Cosmos 1461 3.2 18:10:39 10° S 18:14:47 48° ESE 18:18:18 13° NE
Resurs 01 Rocket 3.8 18:17:34 10° NE 18:17:34 10° NE 18:10:36 - ESE
Cosmos 1703 3.6 18:13:21 10° SSE 18:17:00 40° E 18:20:40 10° NNE
YAOGAN 1 4.4 18:14:07 10° SSW 18:18:04 35° W 18:22:02 10° NNW
Cosmos 2219 Rocket 3.9 18:15:46 10° SW 18:20:45 32° WNW 18:25:45 10° N
Cosmos 2058 2.9 18:17:05 10° S 18:21:12 86° W 18:25:19 10° N
OAO 3 Rocket 3.6 18:16:37 10° WNW 18:21:28 63° SSW 18:26:13 10° SE
COSMO-SKYMED 1 3.5 18:18:52 10° N 18:23:04 50° WNW 18:27:14 10° SSW
Cosmos 1707 Rocket 4.4 18:21:51 10° NNE 18:25:31 26° E 18:29:11 10° SE
Atlas Centaur 2 3.3 18:21:59 10° W 18:26:35 31° SSW 18:30:21 10° SE
SEDSat Delta rocket 4.0 18:21:38 10° W 18:27:14 56° SSW 18:31:58 11° ESE
FREGAT/IRIS 3.4 18:24:56 10° SE 18:27:37 29° ENE 18:29:05 19° NNE
Cosmos 1666 Rocket 3.9 18:26:04 10° SSE 18:30:07 41° E 18:34:05 11° NNE
Cosmos 1626 2.4 18:27:34 10° SSE 18:31:09 45° E 18:34:02 15° NNE
Cosmos 1125 Rocket 3.4 18:26:31 10° NNW 18:31:44 88° ENE 18:36:55 10° SSE
FAST Rocket 4.1 18:28:59 10° S 18:31:57 49° E 18:32:58 30° NE
CZ-3C R/B 4.4 18:25:53 10° SW 18:33:24 13° SSW 18:37:18 10° SSE
Cosmos 2278 Rocket 2.1 18:28:18 10° NNW 18:33:58 70° ENE 18:39:36 10° SSE
Cosmos 1340 Rocket 3.0 18:30:57 10° SSW 18:34:54 71° W 18:38:49 10° N
Spot 2 Rocket 4.4 18:31:07 10° SE 18:35:13 26° ENE 18:39:19 10° NNE
NOAA 12 4.0 18:31:55 10° SSE 18:37:05 67° ENE 18:42:18 10° N
Meteor 1-27 4.2 18:31:40 10° N 18:37:30 81° E 18:43:20 10° S
Cosmos 2279 Rocket 3.9 18:33:37 10° N 18:39:52 85° E 18:46:06 10° S
Cosmos 1538 Rocket 3.9 18:38:46 10° S 18:43:59 72° ESE 18:48:47 13° NNE
Cosmos 1356 Rocket 3.2 18:40:33 10° S 18:44:32 70° E 18:47:32 17° NNE
USA 229 DEB 3.9 18:39:03 10° S 18:45:34 50° ESE 18:49:29 24° NE
USA 229 3.9 18:39:09 10° S 18:45:40 49° ESE 18:49:31 25° NE
Cosmos 1184 Rocket 2.8 18:47:52 10° S 18:51:06 59° ESE 18:51:06 59° ESE
Cosmos 2237 Rocket 4.0 18:48:14 10° WSW 18:53:01 28° WNW 18:57:50 10° N
Cosmos 1726 4.3 18:50:27 10° NNW 18:53:42 28° W 18:56:58 10° SSW
Nadezhda 4 Rocket 3.9 18:47:33 10° S 18:53:45 76° E 19:00:02 10° N
SL-16 R/B 2.5 18:52:36 10° SSW 18:58:12 66° WNW 19:03:37 11° NNE
Aureole 1 Rocket 3.5 18:53:43 10° S 18:58:13 58° E 19:01:09 28° NNE
Iridium 4 Rocket 3.2 18:57:42 10° SSE 19:02:23 57° E 19:03:08 50° NE
Centaur AC-119 2.8 19:03:21 10° WSW 19:05:47 46° SSE 19:06:05 44° SSE
Hubble Space Telescope 3.1 19:05:14 10° WSW 19:08:10 19° SSW 19:10:24 13° SSE
Cosmos 1092 Rocket 3.9 19:05:47 10° S 19:12:04 77° E 19:18:24 10° N
Timation 1 Rocket 4.2 19:06:36 10° NNW 19:12:37 75° ENE 19:18:36 10° SSE
Cosmos 2297 3.6 19:08:33 10° NNW 19:14:15 70° ENE 19:17:58 22° SSE
Lacrosse 5 rocket 3.0 19:14:36 10° NNW 19:16:05 22° NNW 19:16:05 22° NNW
Cosmos 773 Rocket 4.5 19:26:46 10° SSW 19:31:49 57° WNW 19:33:30 39° NNW
Cosmos 2195 Rocket 4.3 19:33:14 10° S 19:38:59 79° SE 19:38:59 79° SE
Helios 1B rocket 4.4 19:45:00 25° SW 19:45:00 25° SW 19:46:49 10° SSW
FENGYUN 3A 4.1 19:38:22 10° S 19:43:37 58° W 19:48:54 10° NNW
ALOS 3.1 19:39:21 10° S 19:43:50 48° W 19:48:20 10° NNW
BREEZE-M DEB (TANK) 3.6 19:44:52 10° SW 19:48:52 88° SE 19:49:16 80° ENE
USA 215 3.3 19:49:19 52° SSE 19:50:56 72° SW 19:57:30 10° NW
Resurs 01 Rocket 3.9 19:47:04 10° S 19:55:08 12° NNW 19:55:26 10° NNW
Milstar 3 3.8 19:51:37 10° W 19:57:51 40° SSW 19:59:52 35° SSE
Cosmos 1603 4.5 19:57:02 10° SW 20:01:43 48° W 20:01:43 48° W
ATLAS 2A CENTAUR R/B 4.4 20:07:14 10° SW 20:07:21 11° SW 20:07:21 11° SW
H-2A ROCKET BODY 4.0 20:32:05 10° W 20:39:02 33° W 20:39:02 33° W
